Weather in Samkovo

Russia / Perm Krai     58°56′27″N   54°04′54″E
temp.,
°C
wind,
m/s
gust,
m/s
humid.,
%
clouds,
%
prec.,
mm/h
press.,
hPa
HPBL,
m
1 march, mon
mon123:00−18ne2599100 0.2 1016117
02:00−21ne2210092 0.0 101720
05:00−23nne129949 0.0 101820
08:00−23n1110070 0.0 101920
11:00−17sse119137 0.0 1019157
14:00−12sw248662 0.0 1018422
17:00−11sw359079 0.0 1016428
20:00−14ssw399498 0.0 1013298
2 march, tue
tue223:00−15ssw4139391 0.0 1011344
02:00−13ssw51493100 0.0 1006437
05:00−12ssw61493100 0.7 1003569
08:00−11ssw51393100 0.8 998554
11:00−10ssw61293100 1.4 996561
14:00−7ssw51093100 0.9 994569
17:00−6s3794100 2.1 993501
20:00−6s2597100 1.3 993202
3 march, wed
wed323:00−7w1297100 1.5 99421
02:00−9wnw229440 0.0 99321
05:00−9w259760 0.0 99490
08:00−10w259787 0.0 994127
11:00−6w259493 0.1 995254
14:00−4wnw2490100 0.1 995553
17:00−3wnw2591100 0.3 996555
20:00−6nw3895100 0.3 997412
4 march, thu
thu423:00−9wnw3895100 0.3 998321
02:00−14w369876 0.0 997115
05:00−13wsw379786 0.0 998184
08:00−12wsw389599 0.0 997242
11:00−9wsw489297 0.1 997380
14:00−7wsw478899 0.1 996697
17:00−7ssw4787100 0.1 995752
20:00−8s41194100 0.3 992648
5 march, fri
fri523:00−6s51295100 1.3 988798
02:00−5s41096100 1.7 983627
05:00−2wsw61195100 3.6 981886
08:00−8wsw5138896 0.8 983697
11:00−8w6118885 0.9 9871117
14:00−8w71388100 0.2 992947
17:00−8wnw61187100 0.4 997982
20:00−11w41192100 0.1 1001606